Lapse_Rate
5.9 5.9 5.6 6.0 6.0 5.6 5.3 5.5 5.7 5.6 5.7 5.5 5.5 5.5 5.4 5.5 5.6 5.7 6.0 6.3 6.6 6.5 6.4 6.4 6.4 6.5 6.4 6.5 6.4 6.4 6.3 6.2 6.3 6.3 6.3 6.4 6.3 6.4 6.4 6.4 6.4 6.4 6.3
5.5 5.3 5.4 5.9 6.0 5.5 5.2 5.3 5.4 5.3 5.5 5.6 5.5 5.6 5.6 5.7 5.8 6.1 6.3 6.4 6.4 6.4 6.3 6.4 6.4 6.4 6.5 6.4 6.4 6.3 6.2 6.3 6.3 6.2 6.3 6.3 6.4 6.3 6.3 6.3 6.3 6.2 6.1
5.5 5.4 5.2 5.7 5.9 5.5 5.1 5.3 5.6 5.7 5.5 5.6 5.5 5.6 5.6 5.6 5.8 6.0 6.4 6.6 6.7 6.7 6.5 6.4 6.3 6.5 6.6 6.3 6.2 6.2 6.3 6.3 6.4 6.4 6.3 6.3 6.4 6.4 6.4 6.4 6.3 6.3 6.2
5.2 5.2 5.4 5.4 5.8 5.5 5.2 5.5 5.8 5.7 5.2 5.3 5.4 5.5 5.5 5.6 5.9 6.5 6.8 6.9 6.8 6.7 6.5 6.7 6.7 6.4 6.0 5.9 5.9 5.9 5.9 6.0 6.1 6.2 6.2 6.3 6.4 6.4 6.3 6.3 6.4 6.5 6.4
4.8 4.0 5.2 5.4 5.5 5.5 5.5 5.6 5.5 5.2 5.1 5.2 5.5 5.7 5.6 5.9 6.1 6.5 6.8 6.7 6.7 6.5 6.5 6.2 6.3 6.1 6.0 6.1 5.9 5.8 6.0 6.1 6.2 6.2 6.2 6.1 6.0 6.0 6.2 6.1 6.2 6.3 6.3
5.2 4.9 5.0 5.3 5.3 5.4 5.4 5.5 5.3 4.9 4.9 5.3 5.3 5.6 5.8 6.1 6.6 6.8 6.7 6.6 6.5 6.5 6.2 6.1 6.0 5.9 5.9 5.9 5.9 5.8 5.8 5.9 5.9 5.8 5.7 5.6 5.7 5.8 5.9 5.8 6.0 5.9 5.9
4.1 4.9 5.0 5.1 5.1 5.1 5.1 5.2 4.9 4.9 5.0 5.3 5.5 5.8 6.1 6.8 6.7 6.7 6.5 6.3 6.3 6.1 6.0 5.8 5.7 5.8 5.8 5.9 5.8 5.7 5.8 5.8 5.9 5.7 5.5 5.6 5.7 5.6 5.5 5.8 5.8 5.7 5.7
4.4 4.8 4.8 4.9 4.9 4.9 5.0 5.0 4.8 4.9 5.0 5.5 5.4 5.7 6.0 6.5 6.7 6.4 6.3 6.2 6.2 6.0 6.0 5.9 5.9 5.8 5.9 6.2 5.8 5.7 5.6 5.6 5.5 5.4 5.4 5.4 5.5 5.5 5.6 5.7 5.6 5.5 5.5
4.3 4.5 4.5 4.7 4.6 4.6 4.8 4.7 4.7 4.9 4.8 5.3 5.5 5.9 6.2 6.4 6.2 6.1 6.0 5.9 6.0 6.1 6.1 5.9 5.8 5.7 5.5 5.3 5.4 5.6 5.6 5.4 5.6 5.7 5.6 5.6 5.8 6.1 6.0 5.9 5.9 5.8 5.6
4.6 4.2 4.4 4.4 4.4 4.5 4.4 4.6 4.7 4.8 4.9 5.4 5.6 5.9 6.2 6.1 6.1 6.0 5.9 5.9 5.8 5.7 5.8 5.6 5.5 5.6 5.7 5.5 5.4 5.3 5.5 5.3 5.2 5.4 5.2 5.5 5.4 5.4 5.5 5.7 5.8 6.0 6.2
4.9 4.7 4.4 4.2 4.2 4.4 4.4 4.5 5.0 4.9 4.9 5.0 5.6 5.8 6.0 6.0 6.0 5.9 5.9 5.7 5.8 5.7 5.6 5.6 5.5 5.3 5.7 5.7 5.4 5.4 5.2 5.3 5.4 5.4 5.6 5.7 5.6 5.4 5.4 5.5 5.5 5.7 5.8
5.1 5.0 4.8 4.6 4.7 5.0 5.0 4.7 4.8 5.0 5.0 5.2 5.3 5.7 5.8 5.8 5.9 5.7 5.8 5.9 5.7 5.8 5.7 5.9 5.6 5.6 5.7 5.7 5.2 5.2 5.3 5.1 5.2 5.2 5.2 5.4 5.5 5.4 5.4 5.4 5.5 5.6 5.6
5.0 5.0 5.2 5.3 5.0 5.2 5.1 4.9 5.1 5.3 5.4 5.4 5.3 5.3 5.6 5.8 6.0 5.7 5.8 5.9 5.7 5.8 5.5 5.7 5.8 5.9 5.8 5.6 5.3 5.3 5.1 5.2 5.2 5.4 5.3 5.5 5.2 5.2 5.4 5.4 5.6 5.5 5.5
4.9 4.9 4.8 4.8 4.8 5.2 5.2 5.5 5.3 5.4 5.3 5.4 5.6 5.7 5.7 5.7 5.6 5.7 5.9 5.9 5.8 6.1 5.8 6.1 6.0 6.1 6.0 6.1 5.7 5.4 5.6 5.9 5.9 5.9 5.9 5.8 5.7 5.5 5.7 5.7 5.5 5.3 5.2
4.8 4.7 5.0 5.3 5.6 5.4 5.5 5.7 5.7 5.9 5.7 5.7 5.8 5.8 5.8 5.7 5.6 5.5 5.5 5.8 6.0 5.7 6.0 6.0 6.0 5.9 5.9 6.0 5.9 5.8 5.8 6.0 5.7 5.8 5.9 6.0 5.8 5.7 5.9 5.8 5.6 5.4 5.2
6.1 6.1 6.1 6.1 5.9 6.0 6.0 6.2 6.4 6.4 5.8 5.8 5.7 5.7 5.6 5.5 5.6 5.7 5.9 6.0 5.8 6.1 5.9 5.6 5.8 5.9 5.9 6.1 6.0 5.9 5.8 5.9 5.8 5.7 5.5 5.6 5.9 5.8 5.5 5.3 5.1 5.0 5.0
6.5 6.6 6.5 6.5 6.5 6.5 6.4 6.2 6.2 6.0 5.8 5.9 6.0 6.0 5.8 5.5 5.3 5.8 5.8 5.8 5.8 5.7 5.6 5.6 5.7 5.9 6.0 6.0 5.9 5.8 5.3 5.5 5.7 5.6 5.5 5.7 5.7 5.6 5.4 5.2 4.9 5.0 4.9
6.7 6.6 6.5 6.5 6.5 6.5 6.3 6.1 6.1 6.1 5.8 5.8 5.8 5.7 5.4 5.6 5.6 5.5 5.6 5.7 5.5 5.6 5.5 5.8 5.9 5.8 6.1 5.9 5.7 5.5 5.4 5.9 5.5 5.6 5.7 5.7 5.5 5.6 5.5 5.1 4.9 4.8 4.8
6.7 6.5 6.4 6.4 6.3 6.2 6.1 6.1 6.0 5.8 5.7 5.8 6.0 5.8 5.7 5.6 5.7 6.0 5.6 5.5 5.6 5.8 5.7 5.7 5.6 5.9 6.1 5.8 5.7 5.7 5.6 5.8 5.8 5.7 5.5 5.5 5.7 5.9 5.7 5.0 4.8 4.7 4.7
6.6 6.5 6.4 6.2 6.1 6.2 6.2 6.3 6.2 6.2 6.1 5.9 5.9 6.0 5.9 5.9 5.7 6.0 5.8 5.8 5.7 5.9 5.7 5.9 5.9 6.0 6.0 5.8 5.7 5.9 5.8 5.9 5.5 5.3 5.4 5.5 5.4 5.3 4.9 4.3 4.3 4.7 4.3
6.6 6.3 6.2 6.4 6.5 6.4 6.4 6.2 6.1 6.1 6.0 6.0 6.0 6.2 6.0 6.0 5.8 5.8 5.8 5.8 5.7 5.9 5.9 6.2 6.2 6.3 6.0 6.0 6.0 5.8 5.4 5.2 5.2 5.2 5.1 4.8 5.1 4.9 4.5 4.6 4.8 4.6 4.0
6.9 6.8 6.7 6.8 6.7 6.6 6.6 6.8 6.6 6.5 6.4 6.3 6.3 6.4 6.4 6.1 6.2 6.1 6.0 6.1 6.1 6.0 6.0 6.1 5.4 6.1 5.9 5.9 5.3 5.2 4.9 5.0 5.0 4.5 4.8 5.1 4.5 4.5 4.0 4.1 4.2 3.9 3.9
7.1 7.1 7.1 7.0 7.0 6.8 6.8 6.8 6.8 6.5 6.5 6.3 6.3 6.1 6.0 6.2 6.0 6.1 6.4 6.2 6.3 6.2 6.1 6.0 5.7 5.7 5.6 5.3 5.3 5.0 5.2 5.0 4.8 4.6 4.7 4.8 4.5 4.2 3.8 3.9 4.0 3.9 4.0
7.4 7.4 7.1 6.9 6.9 6.8 6.8 6.7 6.7 6.4 6.4 6.2 6.2 6.3 6.4 6.1 6.2 6.1 6.1 6.4 6.4 6.2 5.8 5.8 5.6 5.6 5.3 5.4 5.4 5.1 4.7 4.6 4.6 4.5 4.2 4.2 3.9 3.7 3.8 3.8 3.9 4.0 4.2
6.9 6.7 6.7 6.7 6.7 6.8 6.9 6.8 6.6 6.5 6.8 6.9 6.8 6.7 6.5 6.4 6.1 5.7 5.9 6.0 5.8 5.6 5.6 5.3 5.2 5.1 4.9 4.7 4.5 4.4 4.3 4.3 4.5 4.4 3.7 3.4 3.8 3.6 3.7 3.9 4.0 4.2 4.7
7.0 6.9 6.9 6.9 6.9 7.0 6.7 6.6 6.6 6.9 6.6 6.5 6.5 6.4 6.3 6.1 5.9 5.6 5.5 5.5 5.5 5.2 5.1 4.8 4.8 4.6 4.4 4.4 4.3 4.3 4.4 4.2 4.0 3.7 3.5 3.4 3.3 3.4 3.7 4.0 4.1 4.3 5.0
Wind_Speed
11 18 18 21 22 23 23 21 17 15 14 12 11 12 10 9 11 14 17 18 16 16 16 16 16 15 13 12 12 11 11 11 10 10 11 10 10 10 10 11 11 10 11
17 15 15 17 20 22 22 19 16 15 13 13 11 11 10 11 11 12 15 17 17 15 14 14 14 14 13 12 11 10 9 10 9 9 11 10 9 9 9 9 9 9 10
20 17 12 12 19 22 21 18 17 15 11 12 10 11 10 11 11 11 14 16 18 17 17 15 14 13 13 11 10 11 10 10 10 10 11 9 8 8 5 6 7 8 8
21 20 12 10 19 19 18 14 10 10 9 8 8 8 10 11 10 12 11 13 16 17 17 17 16 14 13 12 11 12 11 10 11 13 11 9 8 7 6 6 6 6 6
20 21 13 15 20 16 13 10 10 10 9 9 8 8 7 8 11 11 12 13 13 13 15 18 17 16 17 15 14 13 13 14 14 13 13 11 10 9 8 7 5 5 4
20 18 13 15 17 10 10 9 11 9 9 7 7 6 6 6 8 9 12 13 14 13 12 15 18 17 18 17 16 15 14 15 15 15 14 13 11 10 9 8 7 6 5
20 16 14 14 15 11 11 10 8 11 7 6 6 5 5 5 7 8 11 12 13 16 16 15 16 16 19 18 19 18 18 17 18 17 16 14 14 14 13 12 11 8 6
20 17 14 11 11 10 11 11 9 8 6 7 6 7 5 7 9 10 11 10 14 17 18 19 19 18 17 21 21 22 21 20 20 19 19 19 19 17 16 16 15 13 10
19 18 19 14 11 11 10 12 11 12 7 8 9 5 4 6 6 9 13 11 13 11 17 20 21 20 20 18 18 24 26 23 22 23 23 23 23 22 20 19 18 16 15
15 17 18 17 12 10 11 11 10 9 9 8 8 11 8 4 5 4 7 11 12 11 13 17 20 20 21 22 21 19 26 30 27 23 22 21 20 25 25 24 23 21 20
16 16 15 14 9 9 9 11 12 12 10 9 9 9 11 10 9 5 7 7 9 12 13 16 16 17 24 22 20 22 26 25 32 28 24 24 23 24 24 25 25 25 24
10 13 12 9 10 10 10 12 12 13 12 11 11 10 11 9 11 10 5 2 5 8 9 7 14 20 20 20 20 23 24 29 31 30 25 24 25 27 28 26 24 24 25
8 10 12 11 10 11 13 13 13 13 13 12 14 12 9 10 8 8 7 6 8 8 8 10 11 21 20 18 21 26 26 29 29 27 24 22 21 22 23 24 24 25 25
10 11 13 12 10 12 15 16 11 10 12 12 17 15 11 11 8 9 9 8 6 9 11 7 9 17 19 21 23 29 23 30 28 25 24 23 22 21 20 19 20 23 25
10 12 12 14 15 16 17 15 11 14 13 14 15 14 11 9 10 12 10 11 12 12 12 11 9 16 21 21 24 26 27 26 29 27 26 26 25 24 22 21 20 22 26
14 14 15 15 17 16 16 15 14 15 16 13 12 16 14 11 14 12 11 11 13 13 11 7 9 12 19 21 23 26 26 23 25 28 29 28 27 25 24 23 24 23 25
16 17 17 17 18 18 18 17 18 18 17 17 16 15 16 15 11 10 9 10 10 10 12 11 9 13 15 16 18 24 23 20 18 26 27 26 25 23 21 21 22 22 22
17 17 18 19 19 20 19 18 17 16 17 17 14 15 16 11 17 16 11 13 13 14 12 16 10 5 14 6 7 12 13 18 19 23 26 22 21 20 20 21 21 22 22
17 17 17 18 17 17 17 17 15 15 14 17 17 15 15 15 15 13 13 12 12 11 12 10 9 6 5 2 4 4 3 8 14 9 13 15 18 18 19 20 22 21 23
16 17 18 18 17 17 17 17 17 19 20 17 16 13 15 14 15 15 11 14 13 12 12 11 6 2 2 1 1 4 5 4 9 14 13 14 15 17 16 18 19 21 24
16 17 16 17 17 15 12 16 14 14 14 13 11 10 10 10 9 10 8 9 7 4 2 4 2 2 2 2 3 2 3 5 7 8 9 10 13 14 16 20 19 20 22
16 15 15 14 13 8 8 11 11 7 6 5 5 4 5 7 10 11 14 15 6 5 4 3 2 2 2 3 2 2 2 3 4 8 7 9 13 9 14 17 18 20 22
10 9 6 3 6 8 12 6 1 3 6 7 7 6 7 7 10 10 15 17 17 18 10 3 3 2 2 3 2 2 4 5 7 8 8 11 9 10 14 18 21 24 24
9 8 10 10 10 10 14 15 16 11 11 12 11 11 10 11 11 9 9 10 9 9 9 6 5 5 4 2 1 3 6 9 10 9 9 11 10 12 10 17 19 19 19
11 11 11 11 12 12 18 15 14 12 13 13 12 12 10 10 14 14 9 7 6 6 9 10 9 8 5 3 4 4 7 8 10 11 8 9 11 10 9 9 17 17 22
12 10 13 13 16 13 19 18 14 8 10 8 9 10 16 11 12 12 6 4 3 2 2 1 1 2 4 6 1 6 6 7 8 9 8 5 8 7 6 10 11 15 12
Wind_Direction
156 160 159 155 155 161 169 171 167 166 159 160 164 156 162 146 148 140 151 159 157 157 157 154 147 146 144 141 138 142 140 132 128 133 134 124 120 104 98 90 81 73 68
157 155 157 161 157 168 169 173 165 164 156 162 165 163 166 166 167 154 151 165 166 164 163 163 161 155 154 155 156 154 161 153 141 128 139 132 126 115 109 92 86 79 69
160 150 160 166 164 170 164 166 163 157 156 178 168 167 170 176 174 172 167 163 172 174 174 170 168 169 167 166 171 167 163 163 160 158 145 142 138 133 116 98 91 79 67
171 153 166 169 161 159 165 160 168 157 165 181 173 169 179 178 181 186 186 179 180 181 184 180 177 181 182 184 185 183 178 178 174 159 163 162 159 155 149 134 119 105 91
167 160 167 168 165 158 164 165 170 168 165 186 178 179 180 184 187 192 193 197 192 188 191 184 188 192 194 193 192 189 185 185 183 182 179 178 176 172 164 157 151 142 132
176 159 156 163 169 162 164 171 170 178 176 178 184 177 190 188 198 201 199 197 201 205 203 186 195 201 199 199 199 197 195 192 191 190 188 184 183 181 183 189 190 187 185
174 158 169 168 172 172 174 168 178 179 162 167 179 182 204 201 212 209 215 208 207 206 207 206 202 207 200 208 206 204 203 201 200 201 200 199 198 197 199 205 209 212 219
168 168 168 173 177 169 174 178 179 189 146 175 187 192 204 204 220 214 211 210 210 210 210 212 213 214 210 200 208 212 213 211 209 211 211 212 212 209 211 214 217 221 225
174 175 179 179 175 181 185 182 185 198 178 190 212 215 215 233 203 203 216 218 213 216 218 217 219 220 221 222 203 207 218 221 221 220 220 226 221 221 221 224 226 231 233
167 173 174 178 180 190 188 188 195 206 203 195 208 235 258 308 213 193 220 220 225 226 224 228 221 222 225 223 223 223 210 220 227 231 235 237 228 222 227 229 232 234 237
174 162 170 164 184 199 196 198 200 211 215 219 208 218 233 240 245 263 267 199 215 227 230 221 227 216 226 223 223 221 228 219 225 230 232 235 239 245 237 233 231 235 240
175 174 158 161 189 210 213 217 216 217 224 226 237 227 230 231 237 235 236 263 267 245 236 212 220 230 226 214 222 215 221 228 232 233 234 234 239 243 244 245 246 249 253
177 164 173 186 204 216 230 231 224 227 225 226 229 234 235 240 246 231 235 234 227 233 222 222 214 227 220 211 217 215 223 223 228 230 230 229 233 236 241 245 249 253 256
192 190 194 200 208 214 231 238 236 236 235 237 239 236 238 235 216 214 223 231 241 241 219 231 212 221 215 214 212 207 215 221 218 220 225 227 226 227 231 237 246 253 256
199 200 202 212 218 225 234 241 241 243 240 244 249 249 241 236 228 236 228 224 236 235 232 224 224 218 222 218 218 212 213 211 217 217 224 228 229 233 238 241 244 248 252
219 218 217 220 224 226 232 239 243 244 248 251 247 249 242 238 239 235 229 229 237 247 250 216 222 229 218 221 216 212 212 213 218 221 227 230 234 241 244 245 249 251 253
216 220 226 227 231 232 236 238 242 246 247 251 251 249 249 248 242 233 224 227 226 217 237 247 217 225 216 215 214 210 217 218 216 222 227 232 236 240 243 245 249 251 252
226 229 229 231 231 233 236 238 242 240 245 250 249 243 249 248 239 230 221 230 228 223 220 240 227 223 215 214 190 200 206 213 224 223 217 226 233 238 244 249 253 258 258
227 227 229 233 237 239 241 242 240 239 241 247 250 245 245 247 246 237 223 224 226 227 223 230 240 203 199 175 155 188 216 233 232 218 210 224 235 242 247 253 257 258 259
225 228 231 235 238 240 242 244 240 243 253 257 252 243 246 242 237 237 233 228 230 224 217 217 189 189 152 111 82 181 203 214 245 247 244 255 261 259 259 258 260 258 255
224 227 230 235 239 245 250 253 256 252 248 249 250 248 248 258 265 254 254 246 241 222 145 190 206 133 169 121 174 131 245 252 255 244 253 262 263 256 253 239 253 253 253
227 231 236 244 251 245 284 244 245 256 257 258 265 51 36 26 51 72 87 76 88 145 149 159 160 140 106 108 151 168 198 245 261 236 258 259 256 258 258 263 262 264 266
229 236 246 287 53 27 349 353 2 60 60 51 52 56 56 43 50 67 62 62 58 56 56 69 89 81 111 121 135 244 251 258 262 255 227 258 254 257 259 264 252 250 255
61 65 59 58 59 36 41 69 76 73 69 61 59 64 63 53 40 42 56 60 51 46 43 45 53 59 50 44 275 270 266 264 265 265 255 261 262 261 262 259 257 243 243
69 66 63 63 62 51 48 56 76 75 72 65 62 61 63 59 53 59 68 68 70 79 79 74 62 54 53 32 341 288 248 250 261 265 247 254 262 265 264 262 260 241 232
80 75 69 63 62 62 56 64 73 76 78 74 65 59 52 53 45 35 46 45 51 95 88 101 180 207 231 227 238 265 276 270 272 280 266 278 282 278 272 268 264 262 248